www.pogodaiklimat.ru
ПОГОДА в Эйндховене
Время
(UTC), дата
10 6.12
11 6.12
12 6.12
13 6.12
14 6.12
15 6.12
16 6.12
17 6.12
18 6.12
19 6.12
20 6.12
21 6.12
22 6.12
23 6.12
00 7.12
01 7.12
02 7.12
03 7.12
04 7.12
05 7.12
06 7.12
07 7.12
08 7.12
09 7.12
10 7.12
11 7.12
12 7.12
13 7.12
14 7.12
15 7.12
16 7.12
17 7.12
18 7.12
19 7.12
20 7.12
21 7.12
22 7.12
23 7.12
00 8.12
01 8.12
02 8.12
03 8.12
04 8.12
05 8.12
06 8.12
07 8.12
08 8.12
09 8.12
10 8.12
11 8.12
12 8.12
13 8.12
14 8.12
15 8.12
16 8.12
17 8.12
18 8.12
19 8.12
20 8.12
21 8.12
22 8.12
23 8.12
00 9.12
01 9.12
02 9.12
03 9.12
04 9.12
05 9.12
06 9.12
07 9.12
08 9.12
09 9.12
10 9.12
11 9.12
12 9.12
13 9.12
14 9.12
15 9.12
16 9.12
17 9.12
18 9.12
19 9.12
20 9.12
21 9.12
22 9.12
23 9.12
00 10.12
01 10.12
02 10.12
03 10.12
04 10.12
05 10.12
06 10.12
07 10.12
08 10.12
09 10.12
10 10.12
11 10.12
12 10.12
13 10.12
14 10.12
15 10.12
16 10.12
17 10.12
18 10.12
19 10.12
20 10.12
21 10.12
22 10.12
23 10.12
00 11.12
01 11.12
02 11.12
03 11.12
04 11.12
05 11.12
06 11.12
07 11.12
08 11.12
09 11.12
10 11.12
11 11.12
12 11.12
13 11.12
14 11.12
15 11.12
16 11.12
17 11.12
18 11.12
19 11.12
20 11.12
21 11.12
22 11.12
23 11.12
00 12.12
01 12.12
02 12.12
03 12.12
04 12.12
05 12.12
06 12.12
07 12.12
08 12.12
09 12.12
10 12.12
11 12.12
12 12.12
13 12.12
14 12.12
15 12.12
16 12.12
17 12.12
18 12.12
19 12.12
20 12.12
21 12.12
22 12.12
23 12.12
00 13.12
01 13.12
02 13.12
03 13.12
04 13.12
05 13.12
06 13.12
07 13.12
08 13.12
09 13.12
Ветер
(напр.,м/с)
Видим. Явления Облачность Т
(С)
Тd
(С)
f
(%)
Тe
(С)
Тes
(С)
Комфортность P
(гПа)
Po
(гПа)
Тmin
(С)
Tmax
(С)
R
(мм)
R24
(мм)
S
(см)
Ю 8 7000 м слаб. дождь {морось} 10/10 300 м
[]
+4.5 +3.6 94 -2 -2 1011.0 1008.3 0.5
Ю 8 9000 м в посл. час дождь {морось} 10/10 200 м
[]
+5.3 +4.2 93 -1 -1 1009.8 1007.2
ЮЗ 9-13
{14}
10 км {дождь, морось} 10/10 210 м
[]
+5.8 +4.7 93 -0 -0 1008.9 1006.3
Ю 9 10 км морось с дождем 10/10 200 м
[]
+6.2 +5.3 94 0 0 1008.0 1005.3 0.2
ЮЗ 9 7000 м слаб. ливневой дождь {морось} 10/10 200 м
[]
+6.5 +5.5 93 +1 +1 1007.0 1004.3 0.1
Ю 8-12
{13}
4700 м слаб. дождь {морось} 10/10 180 м
[]
+6.3 +5.5 95 +1 +1 1006.1 1003.5 1
Ю 9 6000 м в посл. час дождь {ливн. осадки, морось} 10/10 200 м
[]
+6.6 +5.7 94 +1 +1 1005.6 1003.0 0.1
ЮЗ 8 4500 м морось с дождем {ливн. осадки} 10/10 200 м
[]
+6.8 +6.1 95 +1 +1 1005.5 1002.9 0.1
ЮЗ 9-14
{14}
11 км в посл. час дождь {ливн. осадки} 10 баллов +7.1 +6.2 94 +2 +2 1005.1 1002.5 +7.1 0.1
Ю 8 3800 м слаб. ливневой дождь {морось} 10/10 200 м
[]
+7.1 +6.2 94 +2 +2 1004.5 1002.0 0.4
Ю 9 7000 м морось с дождем {ливн. осадки} 10/8 300 м
[]
+7.6 +6.6 93 +2 +2 1004.2 1001.6 0.1
ЮЗ 10-14
{16}
21 км в посл. час дождь {ливн. осадки, морось} 10/10 300 м
[]
+8.7 +7.2 90 +4 +4 1004.1 1001.5
ЮЗ 8-10
{15}
19 км в посл. час дождь {ливн. осадки, морось} 10/6 300 м
[]
+9.0 +7.7 92 +4 +4 1004.3 1001.8 0.2
З 7-10
{13}
11 км слаб. ливневой дождь {морось} 10/6 300 м
[]
+9.3 +8.2 93 +5 +5 1005.5 1002.7 1
З 5-8
{16}
10 км морось {ливн. осадки, дождь} 10/10 450 м
[]
+9.3 +8.1 92 +6 +6 1006.2 1003.7 0.4
З 6-10
{12}
18 км слаб. ливневой дождь 10/6 600 м
[]
+9.4 +7.6 89 +6 +6 1006.8 1004.1
З 7-11
{12}
17 км слаб. морось 10/9 600 м
[]
+9.4 +7.2 86 +5 +5 1007.9 1005.2
З 6-9
{12}
30 км в посл. час морось {ливн. осадки} 10/10 500 м
[]
+9.3 +7.0 86 +6 +6 1008.8 1006.2
З 6 30 км {ливн. осадки, морось} 10/10 600 м
[]
+9.3 +7.0 86 +6 +6 1009.6 1006.9
З 6 23 км {ливн. осадки, морось} 10/10 600 м
[]
+9.4 +6.9 84 +6 +6 1010.3 1007.7
ЮЗ 5-8
{12}
16 км в посл. час дождь {ливн. осадки, морось} 10 баллов +9.2 +6.8 85 +6 +6 1011.1 1008.4 +7.0 2 6.2
ЮЗ 6 22 км 10/10 600 м
[]
+9.1 +6.6 84 +5 +5 1011.7 1009.1
ЮЗ 5 19 км 10/10 1000 м
[]
+8.7 +6.7 87 +5 +5 1012.5 1009.9
ЮЗ 5-7
{9}
21 км 10/10 1260 м
[]
+8.9 +6.6 85 +5 +5 1013.1 1010.6
ЮЗ 5 21 км 10/10 1000 м
[]
+9.2 +6.7 84 +6 +6 1013.7 1011.1
ЮЗ 5 23 км 10/10 1000 м
[]
+9.5 +6.6 82 +6 +6 1013.3 1010.8
ЮЗ 5-7
{10}
25 км 10 баллов +9.8 +6.6 80 +7 +7 1013.7 1011.1
ЮЗ 6 28 км 10/10 1000 м
[]
+9.8 +6.5 80 +6 +6 1013.8 1011.1
ЮЗ 5 28 км 10/10 1000 м
[]
+9.5 +6.3 80 +6 +6 1013.6 1011.1
ЮЗ 5-6
{9}
27 км 10/10 600 м
[]
+9.2 +6.0 80 +6 +6 1014.2 1011.5
ЮЗ 5 27 км 10/10 1000 м
[]
+8.8 +6.0 83 +5 +5 1014.6 1012.0
ЮЗ 5 30 км 10/10 1000 м
[]
+8.6 +5.7 82 +5 +5 1014.6 1011.9
ЮЗ 6-8
{9}
45 км 10/10 1110 м
[]
+9.1 +4.5 73 +5 +5 1014.7 1012.1 +10.1
ЮЗ 4 45 км 10/10 1000 м
[]
+8.9 +4.5 74 +6 +6 1014.4 1011.8
ЮЗ 5 30 км 10/10 1000 м
[]
+8.7 +5.5 80 +5 +5 1014.1 1011.5
ЮЗ 5-7
{10}
26 км 10/10 750 м
[]
+8.6 +5.9 83 +5 +5 1013.4 1010.8
Ю 6-8
{9}
24 км 10/10 1000 м
[]
+9.0 +5.9 81 +5 +5 1012.5 1009.9
ЮЗ 7-9
{10}
35 км 10/10 1000 м
[]
+9.3 +5.5 77 +5 +5 1011.9 1009.3
Ю 5-8
{10}
40 км 6/5 1020 м
[]
+8.6 +5.4 80 +5 +5 1010.6 1008.1
Ю 6-8
{10}
45 км 10/10 1000 м
[]
+8.9 +5.1 77 +5 +5 1009.3 1006.8
ЮЗ 7-11
{11}
45 км 10/10 600 м
[]
+9.4 +5.3 76 +6 +6 1008.2 1005.8
ЮЗ 8-11
{16}
45 км 10/10 660 м
[]
+9.4 +5.6 77 +5 +5 1007.2 1004.7
ЮЗ 8 45 км 10/10 600 м
[]
+9.9 +6.2 78 +6 +6 1005.4 1003.1
Ю 8 45 км 10/10 600 м
[]
+10.2 +6.1 76 +6 +6 1003.9 1001.5
ЮЗ 12-17
{17}
30 км слаб. морось 10/10 600 м
[]
+10.2 +6.8 79 +5 +5 1003.4 1000.7 +8.5
ЮЗ 9 35 км слаб. морось {дождь} 10/8 1500 м
[]
+9.7 +7.8 88 +5 +5 1002.1 999.4 1
ЮЗ 9 5000 м слаб. дождь {морось} 10/6 300 м
[]
+9.3 +8.3 93 +5 +5 1002.0 999.5 0.2
ЮЗ 10-12
{17}
11 км слаб. дождь {морось} 10/10 210 м
[]
+9.6 +8.4 92 +5 +5 1001.6 999.0 0.2
ЮЗ 10 3300 м морось с дождем {ливн. осадки} 10/8 200 м
[]
+9.9 +9.1 95 +5 +5 1001.2 998.7 0.7
ЮЗ 9 45 км в посл. час дождь {ливн. осадки} 10/8 300 м
[]
+10.8 +9.1 89 +7 +7 1001.3 998.6 0.2
ЮЗ 10-15
{17}
40 км {ливн. осадки, дождь} 10/8 540 м
[]
+11.3 +8.2 81 +7 +7 1000.8 998.2
З 10 20 км 10/8 1000 м
[]
+11.1 +5.8 70 +7 +7 1000.9 998.3
ЮЗ 8 16 км 5/5
[]
+10.6 +4.9 68 +7 +7 1000.6 998.0
ЮЗ 7-10
{15}
16 км ясно +9.9 +4.0 67 +6 +6 1000.4 997.9
ЮЗ 6 14 км 4/4
[]
+8.9 +4.7 75 +5 +5 1000.2 997.6
ЮЗ 7 13 км 3/1
[]
+8.8 +4.4 74 +5 +5 999.7 997.1
ЮЗ 9-13
{15}
14 км 10 баллов +9.4 +5.0 74 +5 +5 999.1 996.6 +11.3 2
ЮЗ 11 15 км слаб. ливневой дождь 10/10 1500 м
[]
+8.5 +4.8 78 +3 +3 998.9 996.4 0.1
ЮЗ 8 35 км в посл. час дождь {ливн. осадки, морось} 9/9
[]
+7.4 +4.7 83 +2 +2 998.3 995.7
ЮЗ 8-11
{16}
45 км {ливн. осадки, морось} 6/0
[]
+7.4 +3.5 76 +3 +3 998.4 995.8
ЮЗ 8-10
{11}
45 км {ливн. осадки, морось} 4/4 600 м
[]
+6.4 +3.8 83 +1 +1 998.5 996.0
ЮЗ 8-11
{12}
27 км {ливн. осадки, морось} 5/4 1000 м
[]
+6.9 +3.7 80 +2 +2 998.2 995.6
ЮЗ 9-13
{16}
19 км ливневой дождь {морось} 9/9 600 м
[]
+7.1 +3.9 80 +2 +2 997.4 994.9
ЮЗ 9-13
{14}
25 км в посл. час осадки 9/8 1000 м
[]
+7.3 +3.7 78 +2 +2 996.9 994.4
ЮЗ 9-13
{14}
25 км в посл. час морось 9/9 1500 м
[]
+7.5 +3.4 75 +2 +2 996.2 993.7
ЮЗ 8-12
{14}
23 км в посл. час морось 10/10 630 м
[]
+7.5 +3.8 77 +3 +3 995.4 992.8
Ю 7 18 км слаб. ливневой дождь {морось} 10/10 600 м
[]
+6.9 +4.0 82 +2 +2 994.2 991.7 0.1
Ю 7 6000 м ливневой дождь {морось} 10/10 600 м
[]
+6.3 +4.6 89 +1 +1 993.1 990.6 2
ЮЗ 7-12
{14}
6000 м ливневой дождь 10/10 360 м
[]
+6.2 +5.3 94 +1 +1 992.8 990.2 +6.1 3 7.4
ЮЗ 8 6000 м слаб. морось {дождь} 10/6 300 м
[]
+6.7 +5.6 93 +1 +1 993.3 990.6 0.5
З 7 10 км морось с дождем {ливн. осадки} 10/6 300 м
[]
+7.0 +6.1 94 +2 +2 995.0 992.2 0.4
З 5-6
{12}
18 км в посл. час дождь {ливн. осадки} 9/9 420 м
[]
+7.2 +6.0 92 +3 +3 996.6 994.0 0.9
З 6 11 км слаб. ливневой дождь {морось} 9/8 1000 м
[]
+7.1 +6.0 93 +3 +3 998.1 995.5 0.2
З 4 14 км слаб. дождь {морось} 10/6 600 м
[]
+6.9 +5.6 91 +3 +3 999.3 996.5 1
З 5-8
{12}
8000 м ливневой дождь {морось} 10/10 270 м
[]
+7.5 +6.3 92 +3 +4 999.9 997.1 0.6
З 4 12 км слаб. морось 10/8 300 м
[]
+7.6 +6.7 94 +4 +4 1000.1 997.4 0.4
СЗ 2 6000 м слаб. ливневой дождь {морось} 10/8 200 м
[]
+7.2 +6.6 96 +5 +5 1002.1 999.2 0.2
С 9-17
{17}
3000 м дождь {ливн. осадки, морось} 9/9 120 м
[]
+6.6 +4.9 89 +1 +1 1005.6 1002.7 5
СЗ 6 25 км в посл. час дождь {ливн. осадки, морось} 10/10 1500 м
[]
+6.6 +4.1 84 +2 +2 1008.6 1005.8 0.9
СЗ 5 14 км {ливн. осадки, морось} 10/10
[]
+6.5 +3.6 82 +2 +2 1011.4 1008.5
СЗ 3-5
{17}
13 км {ливн. осадки, морось} ясно +5.4 +1.9 78 +2 +2 1013.8 1010.9 +7.9
СЗ 3 14 км 4/4 1500 м
[]
+5.4 +1.7 77 +2 +2 1015.9 1013.0
З 3 16 км 4/4 1500 м
[]
+5.1 +1.5 78 +2 +2 1017.6 1014.7
З 3-4
{7}
17 км ясно +4.4 +1.4 81 +1 +1 1018.9 1016.1
З 4-6
{10}
18 км в посл. час дождь {ливн. осадки, морось} 8/8 1500 м
[]
+4.9 +2.2 83 +1 +1 1020.4 1017.6
З 3-4
{6}
13 км {ливн. осадки, морось} 3/3 1500 м
[]
+3.3 +1.6 89 -1 -1 1021.5 1018.6
З 3-4
{10}
14 км {ливн. осадки, морось} ясно +3.1 +1.1 87 -1 -1 1022.4 1019.7
З 3-4
{4}
13 км 4/4 1500 м
[]
+2.4 +0.9 90 -2 -2 1022.9 1020.1
З 3-4
{5}
14 км 3/3 1000 м
[]
+2.5 +0.9 89 -2 -2 1023.8 1021.1
З 3-3
{5}
14 км ясно +1.2 +0.1 92 -3 -3 1024.6 1021.9
З 3 16 км 6/6 1500 м
[]
+2.8 +1.7 92 -1 -1 1024.4 1021.7
ЮЗ 3 14 км 1/1 1000 м
[]
+1.4 +0.5 94 -3 -3 1024.7 1022.0
ЮЗ 3-4
{5}
9000 м дымка 10 баллов +0.7 0.0 95 -4 -4 1024.9 1022.2 +0.6 0.0 9.8
ЮЗ 3 8000 м дымка 10/10
[]
+0.8 +0.4 97 -4 -4 1025.3 1022.6
ЮЗ 4 9000 м дымка 10/10
[]
+1.7 +1.0 95 -4 -4 1025.6 1022.8
Ю 3-5
{6}
15 км {дымка} 10/0
[]
+2.5 +1.2 91 -2 -2 1025.6 1022.9
Ю 4 17 км 4/4
[]
+3.7 +1.6 86 -1 -0 1025.2 1022.5
Ю 5 18 км 5/5
[]
+5.2 +1.8 79 +1 +1 1024.3 1021.7
Ю 6-10
{11}
20 км 8/0
[]
+5.7 +1.4 74 +1 +1 1023.2 1020.6
Ю 7 27 км 10/10
[]
+5.8 +1.7 75 +1 +1 1021.8 1019.3
Ю 7 24 км 10/10
[]
+5.8 +1.0 71 +1 +1 1020.8 1018.2
Ю 6-10
{12}
30 км 10/10
[]
+5.7 +0.9 71 +1 +1 1019.5 1017.0
Ю 7 30 км 10/10
[]
+5.4 +0.8 72 0 0 1018.4 1015.8
Ю 6 27 км 10/10 2000 м
[]
+5.1 +1.0 75 0 0 1017.5 1014.9
Ю 7-11
{12}
27 км слаб. морось 10/10 2000 м
[]
+5.3 +1.0 74 0 0 1016.1 1013.6 +6.0
Ю 9 30 км в посл. час морось 10/10
[]
+5.8 +0.6 69 0 0 1015.0 1012.5
Ю 8 35 км 10/10 1500 м
[]
+6.2 0.0 64 +1 +1 1013.9 1011.4
Ю 9-12
{15}
40 км 10/10 930 м
[]
+6.5 +0.2 64 +1 +1 1013.1 1010.5
Ю 8-12
{13}
40 км 10/10 600 м
[]
+6.8 +0.3 63 +2 +2 1011.9 1009.4
Ю 8-12
{14}
40 км 10/10 600 м
[]
+7.2 +0.8 64 +2 +2 1011.9 1009.1
Ю 8-13
{15}
30 км 10 баллов +7.4 +2.2 70 +3 +3 1010.9 1008.3
ЮЗ 9-14
{14}
8000 м дымка 10/8 600 м
[]
+6.3 +3.9 85 +1 +1 1010.8 1008.1
Ю 7-10
{12}
6000 м морось {дымка} 10/10 300 м
[]
+5.5 +4.5 93 0 0 1010.4 1007.7
Ю 6-9
{14}
7000 м морось {ливн. осадки, дымка} 10/10 270 м
[]
+5.9 +5.0 94 +1 +1 1010.1 1007.4 0.2
Ю 6 12 км слаб. дождь 10/10 300 м
[]
+6.2 +5.2 93 +1 +1 1009.8 1007.1 0.5
Ю 5 13 км дождь {ливн. осадки} 10/6 300 м
[]
+6.0 +5.4 96 +1 +1 1009.5 1006.7 1
Ю 5-7
{14}
16 км слаб. дождь 10 баллов +6.0 +5.3 95 +1 +1 1009.5 1006.7 +5.3 1 2.9
Ю 4 14 км морось с дождем 10/10 200 м
[]
+5.9 +5.2 95 +2 +2 1009.1 1006.4 0.4
Ю 4 10 км слаб. дождь 10/8 1000 м
[]
+5.6 +5.0 96 +1 +1 1009.0 1006.3 0.8
Ю 4-6
{7}
10 км слаб. дождь {морось} 10/10 180 м
[]
+5.6 +5.0 96 +1 +2 1008.7 1006.1 0.6
Ю 4 20 км в посл. час дождь {морось} 10/10 200 м
[]
+5.7 +5.0 95 +2 +2 1008.4 1005.9 0.1
Ю 4 35 км {дождь, морось} 10/10 200 м
[]
+6.0 +5.1 94 +2 +2 1007.5 1005.0
ЮЗ 4-5
{7}
35 км {дождь, морось} 10/10 180 м
[]
+6.2 +5.3 94 +2 +2 1006.9 1004.5
ЮЗ 4 35 км 10/10 200 м
[]
+6.5 +5.3 92 +3 +3 1006.1 1003.5
ЮЗ 3 23 км 10/10 200 м
[]
+6.5 +5.3 92 +3 +3 1005.6 1003.0
Ю 4-5
{7}
18 км 10/10 210 м
[]
+6.0 +4.8 92 +2 +2 1005.3 1002.6
Ю 3 20 км 10/10
[]
+5.3 +4.4 94 +2 +2 1005.1 1002.5
Ю 3 15 км 10/10 300 м
[]
+5.3 +4.5 95 +2 +2 1004.9 1002.4
Ю 3-5
{7}
10 км 10 баллов +5.0 +4.3 95 +1 +1 1004.8 1002.2 +6.5 2
Ю 3 8000 м дымка 10/10 1500 м
[]
+4.8 +4.3 97 +1 +1 1004.6 1002.1
Ю 4 10 км 10/10
[]
+4.6 +4.0 96 0 0 1004.4 1001.8
Ю 4-6
{6}
8000 м дымка 10/0
[]
+4.4 +3.8 96 -0 -0 1004.0 1001.4
Ю 4-5
{6}
9000 м дымка 9/9
[]
+4.1 +3.4 95 -1 -1 1003.5 1000.9
Ю 4-6
{6}
10 км 5/5 1500 м
[]
+3.9 +3.2 95 -1 -1 1003.1 1000.5
Ю 3-5
{6}
11 км 10 баллов +4.0 +3.2 95 0 0 1002.7 1000.1
Ю 4-5
{6}
13 км 10/10 600 м
[]
+4.6 +3.5 93 0 0 1002.7 1000.1
Ю 4-5
{6}
17 км 10/10 1000 м
[]
+4.8 +3.6 92 0 0 1002.5 1000.0
ЮЗ 5-6
{6}
13 км 10 баллов +4.5 +3.4 93 -1 -1 1002.4 999.8
ЮЗ 4 14 км 10/9 300 м
[]
+4.5 +3.4 93 0 0 1002.3 999.8
ЮЗ 4 12 км 10/8 300 м
[]
+4.1 +3.1 93 -1 -1 1002.2 999.7
ЮЗ 5-7
{8}
11 км 9 баллов +3.8 +2.9 94 -1 -1 1002.3 999.7 +3.5 1.9
ЮЗ 4 11 км 9/8 600 м
[]
+3.1 +2.4 95 -2 -2 1002.3 999.7
ЮЗ 3 8000 м дымка ясно +2.0 +1.5 96 -2 -2 1002.4 999.7
Ю 4-6
{7}
13 км 3/3 210 м
[]
+3.0 +2.0 93 -2 -2 1002.2 999.5
Ю 4 17 км 8/8 200 м
[]
+3.7 +2.5 92 -1 -1 1001.7 999.1
Ю 5 18 км 8/8 300 м
[]
+4.4 +2.3 86 -1 -0 1000.5 998.0
Ю 6-9
{9}
24 км 4/4 400 м
[]
+5.4 +2.6 82 0 +1 999.3 996.8
Ю 6 35 км 1/1 300 м
[]
+6.2 +2.2 76 +2 +2 997.9 995.4
Ю 6 45 км 9/6
[]
+5.4 +1.4 75 +1 +1 996.7 994.1
Ю 7-11
{12}
45 км 10/10 630 м
[]
+5.1 +0.9 74 -0 -0 995.4 992.9
Ю 6 45 км 10/10 1500 м
[]
+4.5 +0.8 77 -1 -1 993.7 991.2
Ю 7 45 км 10/10 1500 м
[]
+4.5 +0.6 76 -1 -1 992.4 989.9
Ю 8-12
{12}
45 км 10/10 930 м
[]
+4.7 +0.6 75 -1 -1 990.7 988.2 +6.2
Ю 7 45 км 10/10 600 м
[]
+4.9 +0.5 73 -0 -0 989.2 986.7
Ю 7 45 км 10/10 600 м
[]
+5.1 +0.7 73 -0 -0 987.6 985.1
ЮВ 7-10
{15}
45 км 10/10 660 м
[]
+5.2 +1.0 74 -0 -0 985.8 983.4
Ю 7-10
{11}
45 км слаб. морось 10/9 1000 м
[]
+4.9 +1.7 80 -1 -1 984.0 981.5
Ю 7-11
{11}
30 км слаб. дождь {морось} 10/10 1000 м
[]
+4.6 +2.5 86 -1 -1 982.5 980.0 0.8
Ю 7-12
{15}
25 км дождь {ливн. осадки, морось} 10/10 480 м
[]
+4.5 +2.6 87 -1 -1 980.6 978.1 1
Ю 7-10
{12}
21 км дождь 10/9 300 м
[]
+4.1 +2.4 89 -2 -2 978.8 976.3 1
ЮВ 5-8
{10}
45 км в посл. час дождь {морось} 10/8 300 м
[]
+3.9 +2.5 91 -1 -1 977.6 975.0 0.2
ЮВ 5-7
{12}
45 км {дождь, морось} 10 баллов +3.8 +2.4 91 -1 -1 976.1 973.6
ЮВ 4 12 км морось {дождь, дымка} 10/9 300 м
[]
+3.6 +2.6 93 -1 -1 974.5 972.0
ЮВ 5 11 км слаб. ливневой дождь {морось} 10/10 300 м
[]
+3.7 +2.8 94 -2 -2 973.1 970.6 0.2
В 3-6
{12}
8000 м дождь {ливн. осадки, морось} 10/10 210 м
[]
+3.7 +2.9 95 -0 -0 972.3 969.8 +3.6 1 5.1
ЮВ 4 13 км дождь 10/6 200 м
[]
+3.9 +3.1 95 -1 -1 971.9 969.3 0.9
ЮВ 3 8000 м морось с дождем 10/10 200 м
[]
+4.1 +3.5 96 0 0 972.1 969.4 0.1
ЮВ 3 3700 м слаб. дождь {морось} 10/6 100 м
[]
+4.4 +4.0 97 +1 +1 972.6 970.0 0.3
Местоположение метеостанции Эйндховен (Нидерланды): широта 51.45 долгота 5.42 высота над уровнем моря 22 м.
В архиве по умолчанию представлена погода в Эйндховене за последнюю неделю. Архивные данные за месяц целиком и за предыдущие месяцы, начиная с января 2011 года, Вы можете получить, выбрав интересующий диапазон дат из раскрывающегося списка и нажав кнопку "Найти!".
*Определитесь, кто Вы:
Внимание! Время в таблицах - всемирное. Для получения местного времени необходимо прибавить поправку, которая равна 1 ч.
Смотрите также архив погоды в соседних городах и на ближайших метеорологических станциях:
Партнеры нашего сайта:      
Пояснения к столбцам:
  • Ветер - указаны скорость ветра в м/с - средняя за 10 мин, порывы в срок и между сроками (в фигурных скобках) и направление, откуда дует ветер: С - северный,
  • СВ - северо-восточный, В - восточный, ЮВ - юго-восточный, Ю - южный, ЮЗ - юго-западный, З - западный, СЗ - северо-западный.
  • Видимость - горизонтальная дальность видимости в метрах или километрах. При видимости от 1 до 10 км при отсутствии осадков обычно наблюдается дымка, при ухудшении видимости до 1 км и менее - туман. В сухую погоду видимость может ухудшаться дымом, пылью или мглою.
  • Явления - указаны атмосферные явления, наблюдавшиеся в срок или в последний час перед сроком; фигурными скобками обозначены явления, наблюдавшиеся между сроками (за 1-3 часа до срока); квадратными скобками обозначены град или гололедные отложения с указанием их диаметра в мм.
  • Облачность - указаны через наклонную черту общая и нижняя облачность в баллах и высота нижней границы облаков в метрах; квадратными скобками обозначены формы облаков: Ci - перистые, Cs - перисто-слоистые, Cc - перисто-кучевые, Ac - высококучевые, As - высокослоистые, Sc - слоисто-кучевые, Ns - слоисто-дождевые, Cu - кучевые, Cb - кучево-дождевые. Подробнее классификацию облаков см. в Атласе облаков (PDF).
  • T - Температура воздуха - температура, измеренная на высоте 2 м над землей.
  • Td - Температура точки росы - температура, при понижении до которой содержащийся в воздухе водяной пар достигнет насыщения.
  • f - Относительная влажность воздуха - влажноcть воздуха, измеренная на высоте 2 м над землей.
  • Te - Эффективная температура - температура, которую ощущает одетый по сезону человек в тени. Характеристика душности погоды. При расчете учитывается влияние влажности воздуха и скорости ветра на теплоощущения человека.
  • Tes - Эффективная температура на солнце - температура, которую ощущает человек, с поправкой на солнечный нагрев. Характеристика знойности погоды. Зависит от высоты солнца над горизонтом, облачности и скорости ветра. Ночью, в пасмурную погоду, а также при ветре 12 м/с и более поправка равна нулю.
  • P - Атмосферное давление - приведенное к уровню моря атмосферное давление.
  • Po - Атмосферное давление - измеренное на уровне метеостанции атмосферное давление.
  • Tmin - Минимальная температура - минимум температуры воздуха на высоте 2 м над землей.
  • Tmax - Максимальная температура - максимум температуры воздуха на высоте 2 м над землей.
  • R - Количество осадков - Количество выпавших осадков за период времени, мм. При наведении курсора мыши на число - период времени, за который выпало указанное количество осадков.
  • R24 - Количество осадков - Количество выпавших осадков за 24 часа, мм.
  • S - Снежный покров - Высота снежного покрова, см. При наведении курсора мыши на число - состояние снежного покрова и степень покрытия местности в баллах.